Location: Ferma
(41.9500°N, 44.5167°E)
Time: 20:29:03
(UTC+00:00)

FENGYUN 1C DEB - Pass Details

Date: 14 August 2022
Orbit: 606 x 930 km, 99.7° (Epoch: 01 October)

Event Time Altitude Azimuth Distance (km) Brightness Sun altitude
Exits shadow 18:07:10 32° 176° (S) 1,286 ? -20.3°
Maximum altitude 18:09:32 75° 255° (WSW) 818 ? -20.6°
Drops below altitude 10° 18:14:59 10° 342° (NNW) 2,463 ? -21.4°
Sets 18:17:28 0° 344° (NNW) 3,448 ? -21.7°
